Location: Pace/Milton
(30.6162°N, 87.1503°W)
Time: 07:12:22
(UTC-06:00)

Hubble Space Telescope - Pass Details

Date: 06 December 2021
Orbit: 535 x 538 km, 28.5° (Epoch: 23 January)

Event Time Altitude Azimuth Distance (km) Brightness Sun altitude
Exits shadow 05:08:22 11° 219° (SW) 1,690 3.1 -17.7°
Maximum altitude 05:09:14 12° 206° (SSW) 1,652 3.1 -17.5°
Drops below altitude 10° 05:10:47 10° 184° (S) 1,768 3.5 -17.2°
Sets 05:14:21 0° 152° (SSE) 2,655 5.0 -16.4°
